This is the latest recevied weather packets stored in our database for station/object W8KVG. If no packets are shown the sender has not sent any weather packets the latest 10 day(s).
| Time | Temp. | Humidity | Pressure | Rain* | Wind** | Luminosity | Snow |
|---|---|---|---|---|---|---|---|
| 1777911789 | 20° C | 51% | 1008.6 hPa | 0 mm | - | 72 W/m² | - |
| 1777911487 | 20° C | 53% | 1008.7 hPa | 0 mm | - | 68 W/m² | - |
| 1777911184 | 20° C | 51% | 1008.7 hPa | 0 mm | - | 65 W/m² | - |
| 1777910881 | 19.44° C | 56% | 1008.9 hPa | 0 mm | - | 63 W/m² | - |
| 1777910577 | 18.89° C | 50% | 1008.9 hPa | 0 mm | - | 63 W/m² | - |
| 1777910275 | 18.33° C | 52% | 1009.1 hPa | 0 mm | - | 62 W/m² | - |
| 1777909971 | 18.33° C | 50% | 1009.1 hPa | 0 mm | - | 62 W/m² | - |
| 1777909668 | 17.78° C | 51% | 1009.2 hPa | 0 mm | - | 62 W/m² | - |
| 1777909366 | 18.33° C | 53% | 1009.2 hPa | 0 mm | - | 60 W/m² | - |
| 1777909076 | 18.33° C | 53% | 1009.4 hPa | 0 mm | - | 57 W/m² | - |
| 1777908761 | 18.33° C | 52% | 1009.5 hPa | 0 mm | - | 56 W/m² | - |
| 1777908458 | 17.78° C | 52% | 1009.3 hPa | 0 mm | - | 56 W/m² | - |
| 1777908154 | 17.78° C | 53% | 1009.4 hPa | 0 mm | - | 54 W/m² | - |
| 1777907850 | 17.22° C | 52% | 1009.4 hPa | 0 mm | - | 55 W/m² | - |
| 1777907546 | 17.22° C | 53% | 1009.4 hPa | 0 mm | - | 54 W/m² | - |
| 1777907243 | 17.78° C | 54% | 1009.5 hPa | 0 mm | - | 51 W/m² | - |
| 1777906939 | 17.22° C | 54% | 1009.5 hPa | 0 mm | - | 49 W/m² | - |
| 1777906637 | 17.22° C | 52% | 1009.6 hPa | 0 mm | - | 47 W/m² | - |
| 1777906333 | 16.67° C | 53% | 1009.7 hPa | 0 mm | - | 45 W/m² | - |
| 1777906030 | 16.67° C | 54% | 1009.5 hPa | 0 mm | - | 44 W/m² | - |
| 1777905726 | 16.67° C | 55% | 1009.6 hPa | 0 mm | - | 43 W/m² | - |
| 1777905423 | 16.67° C | 54% | 1009.5 hPa | 0 mm | - | 42 W/m² | - |
| 1777905121 | 16.11° C | 54% | 1009.5 hPa | 0 mm | - | 42 W/m² | - |
| 1777904817 | 16.11° C | 55% | 1009.7 hPa | 0 mm | - | 42 W/m² | - |
| 1777904515 | 15.56° C | 55% | 1009.5 hPa | 0 mm | - | 41 W/m² | - |
* Rain latest hour (hover to see other rain measurements)
** Current wind speed in m/s (hover to see current wind gust speed)